Regional Weather Roundup
Issued by NWS Kansas City/Pleasant Hill, MO

Home | Current Version | Previous Version | Graphics & Text | Print | Product List | Glossary Off
Versions: 1 2 3 4 5 6 7 8 9 10 11 12 13 14 15 16 17 18 19 20 21 22 23 24 25 26 27 28 29 30 31 32 33 34 35 36 37 38 39 40 41 42 43 44 45 46 47 48 49 50

000
ASUS43 KEAX 152311
RWREAX

WEATHER ROUNDUP FOR EASTERN KANSAS AND NORTHWEST MISSOURI
NATIONAL WEATHER SERVICE KANSAS CITY/PLEASANT HILL MO
600 PM CDT MON SEP 15 2014

KSZ040-057-103>105-MOZ028-029-037-043-160000-
...KANSAS CITY METROPOLITAN AREA...

CITY           SKY/WX    TMP DP  RH WIND       PRES   REMARKS
K.C. INTL      CLOUDY    64  56  75 N15       30.18R
K.C. DOWNTOWN  CLOUDY    67  57  70 N15G23    30.16R
LEES SUMMIT    CLOUDY    67  58  72 N16       30.16R
OLATHE - IXD   CLOUDY    67  60  78 N10       30.16R
OLATHE - OJC   CLOUDY    67  60  78 N12       30.15R
LAWRENCE       CLOUDY    69  56  62 N14G20    30.16R

$$

MOZ001>008-011>017-020>025-030>033-038>040-044>046-053-054-160000-
...NORTHERN AND CENTRAL MISSOURI...

CITY           SKY/WX    TMP DP  RH WIND       PRES   REMARKS
ST. JOSEPH     CLOUDY    63  52  67 N15G21    30.20R
MOSBY          CLOUDY    63  55  77 N15G21    30.18R
WARRENSBURG    CLOUDY    66  61  82 N7        30.14R
WHITEMAN AFB   CLOUDY    67  61  82 N12       30.13R
CLINTON        CLOUDY    68  64  88 N10       30.13R
SEDALIA        CLOUDY    67  61  81 N14       30.13R
WARSAW         NOT AVBL
MARSHALL       CLOUDY    70  63  78 N7G16     30.15R
CHILLICOTHE      N/A     61  53  75 N8G18     30.19R
KIRKSVILLE     CLOUDY    60  55  83 NW12      30.17R

$$

MOZ041-047>049-056>058-063>065-088>090-097-160000-
...EASTERN AND SOUTHERN MISSOURI...

CITY           SKY/WX    TMP DP  RH WIND       PRES   REMARKS
ST. LOUIS INTL CLOUDY    70  66  87 NW8       30.07R FOG
SPIRIT OF STL  LGT RAIN  69  67  93 NW3       30.06R FOG
COLUMBIA       CLOUDY    66  62  87 N13       30.12R
JEFFERSON CITY CLOUDY    70  63  78 N12       30.10R
MEXICO         CLOUDY    66  66 100 N10       30.12R
HANNIBAL       CLOUDY    64  59  82 N5        30.13R
ROLLA          CLOUDY    70  65  84 NW10      30.09R
LEBANON        MOSUNNY   75  66  73 N8        30.11R
OSAGE BEACH    CLOUDY    72  63  73 NW6       30.10R
SPRINGFIELD    MOSUNNY   82  65  56 W13       30.08S
BRANSON        PTSUNNY   82  66  57 SW6       30.12S
JOPLIN         MOSUNNY   81  68  64 SW8       30.08S
WEST PLAINS    SUNNY     78  66  66 SW9       30.10S

$$

IAZ060-094-KSZ022-034>040-054-083-096-NEZ052-066-093-160000-
...KANSAS...SOUTHEAST NEBRASKA AND IOWA...

CITY           SKY/WX    TMP DP  RH WIND       PRES   REMARKS
TOPEKA         MOSUNNY   70  56  61 N10       30.17R
MANHATTAN      SUNNY     71  53  52 NE14      30.18R
EMPORIA        CLOUDY    68  59  73 NE8       30.15S
CHANUTE        MOSUNNY   74  63  68 NE15G21   30.11S
WICHITA        MOSUNNY   74  61  63 N17       30.14R
OMAHA          PTSUNNY   62  45  53 N6        30.24S
LINCOLN        SUNNY     64  44  48 N10       30.25R
FALLS CITY     MOSUNNY   67  50  54 N12G21    30.20R
LAMONI         PTSUNNY   62  51  67 N8        30.19S
DES MOINES     PTSUNNY   61  46  57 N10       30.20R

$$




USA.gov is the U.S. government's official web portal to all federal, state and local government web resources and services.